Location: Córrego Montividiu
(13.2496°S, 48.8603°W)
Time: 10:57:11
(UTC+00:00)

Daily predictions for brighter satellites

Satellite Brightness Start Highest point End
(mag) Time Altitude Azimuth Time Altitude Azimuth Time Altitude Azimuth
FALCON 9 R/B 3.6 21:11:07 10° NW 21:17:15 68° NE 21:42:45 10° ESE
Centaur D-1AR AC-38 4.2 21:33:26 10° WNW 21:37:25 88° N 21:50:58 10° ESE
Resurs 1-3 3.9 21:50:06 10° SSE 21:54:11 42° E 21:58:14 10° N
ATLAS 5 CENTAUR R/B 2.0 21:52:30 10° WSW 21:54:40 18° S 21:56:13 10° SE
SJ-12 4.2 21:54:02 10° S 21:57:49 66° WSW 22:01:32 10° NNW
Meteor 2-10 4.2 21:53:47 10° S 21:59:29 69° E 22:04:59 10° NNE
Cosmos 2251 Rocket 4.3 21:55:55 10° SSE 22:00:32 30° ESE 22:05:06 10° NE
SWARM A 4.1 21:57:38 10° S 22:00:55 78° E 22:04:09 10° N
Cosmos 2369 Rocket 2.6 21:55:25 10° SSW 22:01:06 71° WNW 22:06:46 10° N
Orbus 7S? 4.4 21:59:28 10° NW 22:02:04 40° SW 22:06:07 10° SSE
Cosmos 1833 Rocket 2.8 21:56:40 10° N 22:02:05 53° ENE 22:07:33 10° SSE
USA 238 DEB 3.5 21:59:38 10° SSW 22:05:39 77° WNW 22:11:28 10° NNE
Cosmos 1707 1.9 22:02:45 10° N 22:05:41 73° E 22:08:39 10° S
USA 238 3.5 21:59:47 10° SSW 22:05:48 78° WNW 22:11:37 10° NNE
SPOT 1/Viking Rocket 3.8 22:01:22 10° S 22:06:29 73° WSW 22:11:35 10° NNW
Cosmos 1805 3.1 22:04:06 10° S 22:07:24 70° W 22:10:41 10° N
CZ-2D R/B 4.0 22:03:44 10° SE 22:07:25 35° E 22:11:08 10° NNE
ARIANE 5 R/B 4.2 22:00:15 10° WNW 22:09:32 21° NNW 22:12:48 10° NNE
Cosmos 1076 Rocket 3.7 22:08:25 10° S 22:12:41 77° W 22:16:52 10° N
PSLV R/B 4.3 22:09:24 10° SE 22:12:54 27° E 22:16:20 10° NNE
GPS 2-17 Rocket1 3.6 22:09:39 10° NW 22:13:31 36° NNE 22:16:16 17° E
Ariane H10+ 3.1 22:12:50 10° WNW 22:18:07 29° NNW 22:20:57 13° NE
BLOCK DM-SL R/B 3.6 22:20:34 10° NW 22:21:57 12° NNW 22:22:59 10° N
SL-24 DEB 4.3 22:18:32 10° NNE 22:22:58 54° E 22:27:27 10° S
GPS 2-15 Rocket1 4.0 22:18:58 10° WSW 22:23:28 43° S 22:27:02 15° ESE
COBE Rocket 3.9 22:19:49 10° N 22:24:32 85° WNW 22:29:28 10° SSW
Cosmos 1954 Rocket 4.3 22:23:00 10° S 22:27:55 42° ESE 22:32:33 11° NE
SJ 16-02 1.1 22:25:01 10° S 22:29:17 75° ESE 22:33:31 10° NNE
KORONAS-FOTON 4.5 22:28:28 10° NNW 22:31:42 48° W 22:34:58 10° S
SL-08 R/B 4.1 22:29:24 20° ENE 22:31:43 30° ESE 22:35:58 10° SSE
Cosmos 1452 Rocket 3.8 22:28:52 10° NNW 22:34:02 69° WSW 22:39:15 10° S
Cosmos 1302 Rocket 3.9 22:30:38 10° N 22:35:41 60° ENE 22:40:49 10° SSE
Meteor 1-19 Rocket 4.1 22:32:20 10° N 22:37:52 81° E 22:43:39 10° S
Palapa 6 Rocket 2.5 22:34:13 10° WSW 22:37:58 84° SSE 22:39:22 38° ENE
Resurs 01 Rocket 1.5 22:34:50 10° SSE 22:39:12 61° E 22:43:32 10° N
Cosmos 2221 3.0 22:39:47 10° NNW 22:43:49 58° W 22:47:55 10° S
SKYMED 3 4.4 22:43:59 43° ENE 22:44:39 48° ESE 22:48:26 10° S
ATLAS 2AS CENTAUR R/B 2.7 22:38:15 10° N 22:45:00 61° ENE 22:51:58 10° SSE
Radarsat Rocket 3.9 22:39:19 10° SSE 22:45:11 80° ENE 22:51:27 10° NNW
Cosmos 2266 Rocket 3.9 22:39:16 10° S 22:45:23 89° E 22:51:33 10° N
Cosmos 1536 2.4 22:44:28 10° S 22:48:09 76° E 22:49:47 31° NNE
Cosmos 1553 Rocket 4.3 22:42:47 10° NNE 22:48:40 44° E 22:54:39 10° SSE
Cosmos 1812 Rocket 4.0 22:46:10 10° NNW 22:50:25 63° W 22:54:45 10° S
Meteor 1-27 Rocket 3.9 22:45:31 10° N 22:51:13 52° E 22:56:55 10° SSE
Spelda 3.6 22:54:08 10° WNW 22:55:54 41° NNW 22:55:54 41° NNW
Meteor 1-14 Rocket 4.3 22:51:17 10° S 22:56:38 48° E 22:57:35 43° ENE
Ariane H10 4.2 22:55:28 10° NW 22:57:49 16° NNW 22:57:54 16° N
Cosmos 1655 Rocket 4.1 22:52:15 10° S 22:58:20 50° E 23:00:46 33° NE
SWIFT 3.5 22:56:23 10° WSW 22:58:57 23° S 22:58:57 23° S
FUSE 4.4 23:02:04 10° W 23:07:16 56° SSW 23:08:44 42° SSE
USA 59 Rocket 1.9 23:16:27 10° SW 23:23:52 48° WNW 23:27:13 23° N
Cosmos 839 Rocket 4.5 23:22:31 10° N 23:31:15 64° ENE 23:31:15 64° ENE
Cosmos 1992 Rocket 4.4 23:28:55 10° NNW 23:40:03 - S 23:33:42 59° W
